{"data":{"norad_id":66821,"epoch":"2026-05-25T03:30:36.038880Z","epoch_age_seconds":65337,"freshness":"FRESH","line1":"1 66821U 25280A   26145.14625045  .00000976  00000+0  89543-4 0  9999","line2":"2 66821  70.0012 141.8755 0002875 269.5889  90.4941 14.98338649 27523","mean_motion":14.98338649,"eccentricity":0.0002875,"inclination_deg":70.0012,"raan_deg":141.8755,"arg_perigee_deg":269.5889,"mean_anomaly_deg":90.4941,"bstar":8.9543e-5,"rev_number":2752,"period_min":96.106444358294,"perigee_km":570.03097198742,"apogee_km":574.02731752065,"semimajor_km":6950.166144754,"source":"CELESTRAK","updated_at":"2026-05-25T13:38:21.333292Z"}}